Temp_Advection
nan nan nan nan nan nan nan nan nan nan nan nan nan nan nan nan nan nan nan nan nan nan nan nan nan nan nan nan nan nan nan nan nan nan nan nan nan nan nan nan nan nan nan
nan 0 0 0 0 0 0 0 1 -0 -1 -0 0 -0 0 0 -1 -0 0 1 1 1 1 -1 -1 0 0 1 1 -0 -0 1 3 2 1 1 1 1 0 3 1 1 nan
nan -0 -0 -0 -0 -0 0 -0 -0 -0 0 -0 -0 -0 -0 -1 -0 0 1 0 0 0 0 -0 -1 -1 0 2 1 -1 -1 2 2 2 2 2 1 -0 2 4 2 1 nan
nan -1 -1 -1 -0 -0 -0 -0 -0 -0 -0 -0 -0 -0 -1 -1 -0 0 0 0 0 0 0 -1 -1 -0 0 0 -0 1 1 1 1 1 2 2 1 1 1 3 3 0 nan
nan -1 -1 -0 -0 -1 -1 -1 -1 -1 -1 -0 -0 -0 -0 -1 -1 -1 -0 0 0 1 1 0 -0 -0 0 0 0 1 1 1 0 1 1 1 0 -0 2 6 2 1 nan
nan -1 -1 -0 -0 -0 -0 -1 -1 -1 -1 -1 -1 -1 -1 -1 -1 -1 -1 -1 -0 0 0 -0 0 0 -0 -0 0 1 1 1 -0 -0 1 1 1 2 3 3 1 1 nan
nan -0 -0 -0 -0 -1 -1 -1 -1 -1 -1 -1 -1 -1 -1 -1 -1 -0 -0 -1 -1 -0 0 0 -0 1 1 -1 -0 1 1 1 1 1 -1 1 2 2 4 4 1 0 nan
nan -1 -1 -1 -0 -0 -0 -1 -1 -1 -0 -0 -0 -1 -1 -1 -1 -1 -0 0 -0 -0 -0 -1 -0 0 0 0 0 -0 1 1 2 1 1 1 3 3 2 1 1 1 nan
nan -1 -1 -1 -1 -0 -0 -0 -0 -0 -1 -0 0 -0 -1 -1 -1 -1 -1 -0 1 0 -1 -0 -0 -0 -0 0 0 0 0 1 2 2 2 2 1 1 1 1 1 0 nan
nan -1 -1 -1 -1 -1 -1 -0 -0 0 -0 -0 -0 0 -0 -1 -1 -1 -1 -1 -1 1 0 0 0 -0 -0 -0 -0 0 2 3 2 2 2 2 1 1 1 0 -0 0 nan
nan -1 -1 -1 -1 -1 -1 -1 -1 -0 -0 -0 -0 0 0 -0 -1 -1 -1 -1 -1 0 1 -0 -0 0 0 0 0 0 1 2 2 2 2 1 1 0 0 0 0 1 nan
nan -2 -1 -1 -1 -1 -1 -2 -2 -1 -0 0 -0 -0 0 0 -0 -1 -1 -1 -1 -1 1 1 0 0 -0 -0 0 1 1 1 2 1 1 0 0 0 0 0 1 1 nan
nan -2 -2 -2 -1 -1 -1 -1 -2 -2 -1 -1 -0 -0 -0 0 0 -0 -1 -1 -1 -0 0 0 1 1 -0 -0 1 1 1 1 1 0 0 0 1 1 1 1 1 0 nan
nan -2 -2 -2 -3 -3 -3 -1 -1 -1 -2 -2 -1 -0 0 0 1 0 -0 -1 -1 0 1 0 1 1 0 1 1 1 1 1 0 1 1 1 1 1 1 1 1 0 nan
nan -1 -1 -1 -1 -2 -3 -3 -3 -2 -1 -2 -2 -0 0 -0 0 0 0 0 1 0 -0 0 0 0 1 1 1 0 1 1 1 1 1 1 1 1 0 0 0 0 nan
nan -1 -1 -1 -1 -1 -2 -5 -4 -1 -2 -2 -1 -1 -0 0 0 0 0 1 1 0 -0 0 1 0 0 0 0 0 1 1 0 0 1 1 0 0 -0 0 0 0 nan
nan 0 -1 -1 -1 -0 -1 -2 -3 -3 -3 -2 -0 -1 -1 0 1 0 0 0 1 1 0 1 0 0 1 0 0 1 1 0 0 1 0 0 0 -0 0 0 0 0 nan
nan 0 0 -0 -1 -0 -0 -1 -1 -2 -2 -3 -3 -1 -1 0 0 1 0 1 1 1 0 0 0 1 0 0 1 1 0 0 1 1 0 0 0 0 0 -0 0 0 nan
nan -0 0 -0 -0 -0 -1 -1 -1 -1 -1 -1 -2 -2 -1 0 1 0 0 0 0 1 1 1 1 0 1 1 1 1 0 1 1 1 1 0 0 0 0 0 0 0 nan
nan -0 -0 -0 -0 0 -0 -1 -1 -1 -1 -0 -1 -1 -1 -0 0 -0 -1 0 2 2 1 0 0 1 1 1 1 0 1 1 1 0 1 0 0 1 0 0 0 0 nan
nan -0 -0 0 -0 -0 0 -0 -1 -1 -1 -1 -1 -1 -1 -1 -0 -0 0 1 1 1 0 0 1 0 1 1 0 1 1 1 1 0 0 0 1 0 0 0 -0 0 nan
nan 0 0 -0 0 -0 -0 -0 -0 -0 -1 -1 -1 -1 -1 -0 -0 0 0 0 0 1 1 1 1 0 1 0 0 1 -0 0 0 0 -0 0 0 -0 -0 -0 0 -0 nan
nan 0 0 0 0 -0 -0 -0 -0 -0 -0 -0 -0 -0 -0 0 0 0 0 0 1 1 1 1 1 0 0 0 1 0 0 -1 -0 0 0 0 -0 -0 -0 -0 -0 0 nan
nan 0 0 -0 -0 -0 -0 -0 -0 -0 -0 -0 -0 -0 0 0 1 1 0 1 1 1 1 1 0 0 0 0 0 0 1 0 0 0 1 -0 -1 -0 -0 0 0 0 nan
nan 0 0 -0 -0 -0 -0 -0 -0 -0 -0 -0 -0 0 0 0 1 0 0 1 1 1 0 0 0 -0 0 0 0 0 0 1 0 1 0 -0 -0 -1 0 -0 0 0 nan
nan nan nan nan nan nan nan nan nan nan nan nan nan nan nan nan nan nan nan nan nan nan nan nan nan nan nan nan nan nan nan nan nan nan nan nan nan nan nan nan nan nan nan
Wind_Speed
16 12 12 12 16 23 25 28 36 34 38 39 39 37 31 28 34 31 32 35 47 48 43 42 42 44 44 45 48 48 48 46 48 42 44 41 37 30 30 39 41 38 37
16 12 13 11 9 8 7 9 16 14 23 29 30 32 31 31 30 32 34 36 42 44 43 41 40 42 42 43 45 47 45 43 43 45 46 43 40 26 23 47 42 40 35
18 17 14 12 10 7 3 1 5 8 11 13 15 18 21 24 27 31 29 32 37 40 41 39 40 40 40 44 43 43 41 42 44 47 50 46 41 26 28 43 42 40 34
17 19 18 16 14 11 9 7 7 8 10 13 16 20 23 23 24 26 28 31 33 35 36 37 37 36 38 37 38 36 38 42 46 45 48 43 44 33 34 44 46 39 32
18 17 17 17 18 17 17 15 11 10 10 12 14 16 18 23 25 27 29 30 30 32 34 35 36 33 32 32 32 33 34 40 45 46 43 46 43 41 43 48 43 31 27
17 17 18 18 18 18 20 20 20 19 17 14 16 18 19 19 19 24 27 30 33 34 37 35 29 30 30 29 32 32 35 37 37 46 46 47 43 37 38 45 36 29 21
18 16 16 18 20 22 23 24 24 23 24 23 24 23 21 20 21 19 20 26 30 35 35 33 30 31 30 32 34 36 36 34 37 42 44 46 43 40 40 39 30 23 20
23 23 21 21 22 21 22 23 24 25 24 21 22 24 25 24 23 23 23 23 27 30 33 35 35 32 30 32 31 34 36 33 32 35 36 35 32 28 25 25 22 19 11
23 22 25 24 22 22 23 22 22 22 24 26 27 26 25 25 25 25 25 24 25 26 29 31 32 31 28 29 28 31 29 34 33 31 28 24 20 21 20 22 18 7 5
28 27 27 25 27 28 27 26 26 26 27 27 27 26 24 28 28 28 28 27 26 25 24 26 28 27 28 26 30 31 35 34 34 30 29 24 21 22 22 17 11 14 10
35 36 34 31 28 26 28 30 30 29 29 29 29 27 26 26 28 30 29 29 29 29 24 24 26 24 24 26 27 29 31 32 29 26 23 21 20 19 16 12 14 14 12
37 38 39 38 35 33 31 29 29 30 31 31 31 30 27 27 28 29 27 28 27 28 26 22 24 24 20 19 20 19 25 27 26 23 23 20 18 17 13 13 12 12 10
32 35 38 38 38 35 35 35 31 29 32 33 33 31 29 26 27 26 26 25 26 25 21 19 22 19 18 17 14 15 23 25 25 24 22 21 19 17 17 16 13 10 10
35 33 30 32 35 37 37 38 37 33 31 34 33 32 32 28 26 23 25 25 24 22 16 16 16 16 16 13 14 19 24 25 23 24 24 21 22 22 19 14 14 12 10
36 40 41 41 39 36 36 37 37 40 33 29 31 31 33 33 25 24 26 24 21 16 13 14 15 16 17 20 24 28 29 28 27 24 22 24 25 22 19 17 14 13 9
32 34 34 34 35 38 43 48 41 40 38 34 28 30 32 31 28 25 25 21 15 13 15 16 18 20 21 26 32 33 32 30 25 22 25 26 23 22 21 19 15 11 10
31 32 34 34 33 34 35 36 37 35 34 38 37 32 29 30 31 27 24 20 14 13 17 18 22 23 26 32 36 36 33 28 24 26 25 24 23 22 22 19 17 12 13
31 32 34 34 34 34 33 34 34 34 33 34 36 35 30 28 32 29 25 22 20 17 18 20 21 28 31 35 39 36 32 29 28 28 26 25 25 25 24 20 15 14 14
31 32 33 34 34 32 33 33 34 34 34 34 33 33 34 29 27 29 29 28 27 23 23 24 25 27 35 36 35 35 33 32 32 31 29 28 25 23 21 20 17 14 17
32 32 32 31 32 34 33 32 31 31 33 32 34 35 35 33 35 33 33 34 33 28 24 26 28 28 34 35 34 36 34 34 33 31 30 27 23 22 24 23 19 21 21
31 30 29 29 29 29 30 30 30 31 32 34 33 31 31 32 33 37 39 38 35 30 26 26 29 32 30 32 35 37 34 34 33 33 32 28 27 27 25 22 24 22 21
28 28 28 27 27 26 26 25 26 27 29 30 31 30 29 26 30 31 32 36 34 29 26 26 28 30 28 30 37 35 32 35 35 34 31 29 28 27 26 23 24 22 20
27 27 27 26 25 23 21 19 18 17 17 18 22 24 23 23 23 24 27 28 29 27 25 23 25 27 25 30 32 33 34 35 32 32 32 31 30 29 26 26 24 23 21
25 26 26 25 24 21 20 17 12 8 9 9 11 13 14 15 19 20 22 25 25 23 19 19 19 23 23 29 33 31 34 33 31 28 29 31 31 27 29 27 24 23 23
25 25 25 24 22 21 19 16 14 11 7 4 4 6 9 13 15 17 18 18 17 17 19 19 19 22 25 31 32 32 31 29 28 29 30 28 28 29 30 27 26 25 25
24 24 24 24 22 19 16 14 12 9 5 1 3 6 9 12 13 14 15 17 20 20 20 21 25 26 30 31 31 30 29 30 32 30 27 28 30 30 29 30 28 27 25
Wind_Direction
86 116 158 181 225 241 245 241 239 249 246 251 254 258 259 258 260 265 269 272 278 274 275 273 274 272 270 272 273 270 267 266 256 253 249 248 242 238 246 262 248 248 250
59 67 83 104 114 125 159 216 240 256 252 250 254 255 256 256 257 261 266 269 269 273 271 272 275 275 276 274 273 273 272 271 268 252 253 241 242 233 281 263 249 244 249
29 36 47 62 66 66 73 265 279 284 286 282 278 270 260 255 253 260 270 273 272 274 274 276 275 272 272 271 270 274 278 274 267 256 254 243 228 235 252 245 238 238 246
20 9 9 20 25 24 16 4 343 321 307 300 292 282 275 268 263 261 266 272 275 276 277 276 275 272 270 274 278 284 282 277 271 261 252 246 226 231 261 241 231 234 242
16 10 9 6 1 355 353 351 343 325 315 318 315 313 296 282 276 268 258 262 270 275 275 275 273 272 274 275 278 280 281 280 267 258 255 245 240 243 243 226 225 233 242
337 336 338 341 338 338 338 335 333 329 320 316 316 309 314 319 298 274 267 260 261 269 272 271 276 275 275 277 280 278 280 281 279 267 259 245 247 238 231 225 225 225 235
320 319 317 323 322 325 328 328 327 322 321 321 310 311 311 315 312 301 276 264 260 256 262 268 270 269 273 276 273 273 273 273 274 268 266 252 242 240 233 218 217 224 231
305 309 314 312 311 316 318 321 321 313 308 305 311 311 308 309 307 305 299 284 270 266 266 266 266 267 269 271 276 274 261 266 261 261 258 259 252 243 216 229 226 218 222
315 312 304 301 299 302 302 308 311 309 306 301 301 307 307 305 305 303 297 294 284 273 271 270 266 264 266 273 271 266 270 262 254 243 241 239 227 214 213 204 194 208 242
314 311 306 307 303 301 300 297 295 298 299 297 298 299 298 305 305 308 306 300 295 285 275 274 275 272 269 277 275 261 254 247 242 233 228 211 194 185 184 188 226 217 225
301 298 296 296 302 303 297 290 288 286 288 290 290 292 292 297 304 304 306 301 299 295 284 274 272 270 269 272 276 275 265 254 235 227 205 187 180 183 189 209 210 243 221
303 300 298 296 292 292 295 295 285 285 285 281 281 283 282 289 297 301 299 299 297 294 285 279 277 277 280 281 285 278 256 240 217 201 192 180 180 188 199 204 209 217 204
302 300 296 295 294 289 284 285 288 286 282 279 276 277 276 284 290 297 296 292 291 289 277 270 272 278 279 278 273 246 233 215 202 189 182 182 190 194 186 188 167 173 159
305 303 304 302 298 292 284 276 276 279 282 278 273 272 271 278 280 288 293 295 289 283 263 268 265 268 271 260 225 213 206 201 202 200 194 185 184 177 174 163 166 162 152
299 298 298 298 296 296 289 281 274 265 270 279 273 266 264 265 273 279 289 293 287 280 266 260 254 239 235 222 204 195 192 198 198 193 192 185 178 168 158 156 165 156 152
304 298 294 292 290 289 286 286 276 268 261 261 266 262 254 256 257 266 279 283 290 263 261 254 242 230 225 219 203 194 196 197 194 195 189 179 170 163 158 163 163 163 164
306 308 305 302 297 295 294 287 284 284 273 257 255 256 254 248 250 255 262 270 275 258 252 249 247 231 222 216 207 201 195 194 195 192 182 175 169 165 171 163 167 169 172
318 310 310 308 305 300 295 287 286 280 276 271 255 250 250 247 241 244 248 256 255 248 247 245 242 235 221 215 211 201 196 192 190 182 179 173 167 174 164 165 164 162 170
318 316 315 309 306 301 296 287 280 276 274 269 265 255 243 240 243 241 239 248 257 251 246 242 239 235 225 220 216 203 195 191 183 178 172 170 170 175 165 158 156 160 152
322 320 315 312 310 304 299 293 283 273 270 267 261 256 251 242 238 233 236 245 250 254 246 241 238 233 228 222 213 202 192 185 179 174 169 168 173 175 163 160 157 147 143
324 325 322 318 313 310 304 295 285 274 266 264 261 257 253 247 245 245 245 240 241 245 241 237 234 228 225 220 205 202 188 181 176 170 169 169 170 167 159 161 153 153 145
330 329 327 325 323 317 310 301 292 281 271 261 258 258 254 248 247 245 245 241 241 238 237 234 230 228 222 216 204 197 181 178 172 171 170 169 166 161 160 163 158 154 147
336 338 336 333 332 330 325 319 301 292 282 265 258 256 254 249 243 241 239 237 228 227 225 226 224 220 214 208 200 189 178 175 174 177 172 165 163 160 159 156 152 149 150
345 345 344 343 344 342 341 340 330 302 289 278 263 254 248 240 234 229 226 221 217 213 214 216 215 210 202 194 184 177 175 171 177 178 173 165 160 158 156 152 149 148 149
353 353 352 352 351 349 351 353 353 352 340 304 261 234 223 216 211 210 208 206 199 192 194 196 196 189 184 178 171 168 171 171 172 176 172 160 156 156 153 149 150 152 151
357 359 358 358 359 359 359 3 7 7 4 3 183 186 183 182 183 179 180 182 179 177 178 180 174 169 172 168 160 159 167 169 171 172 161 157 157 152 153 149 148 150 149
Height
1433 1431 1430 1432 1431 1434 1435 1436 1444 1451 1457 1462 1460 1460 1459 1461 1465 1463 1463 1466 1472 1474 1474 1476 1476 1478 1475 1476 1476 1478 1477 1479 1479 1480 1480 1481 1485 1485 1485 1488 1489 1491 1491
1438 1437 1433 1432 1433 1434 1436 1439 1442 1445 1447 1449 1450 1451 1450 1453 1456 1458 1460 1462 1465 1466 1465 1466 1465 1467 1467 1467 1466 1466 1468 1468 1470 1469 1471 1474 1474 1476 1478 1487 1486 1487 1484
1441 1440 1438 1435 1436 1438 1439 1440 1439 1439 1439 1439 1440 1442 1444 1445 1448 1450 1452 1455 1457 1457 1459 1456 1456 1458 1458 1458 1455 1457 1458 1460 1460 1460 1461 1463 1464 1468 1462 1474 1477 1479 1477
1440 1441 1442 1440 1438 1437 1437 1435 1435 1434 1435 1436 1438 1438 1439 1440 1442 1443 1445 1447 1448 1447 1447 1447 1449 1450 1450 1451 1449 1451 1451 1452 1452 1453 1453 1455 1456 1455 1460 1462 1470 1469 1469
1444 1445 1445 1441 1439 1438 1438 1435 1434 1434 1433 1432 1433 1435 1434 1435 1436 1436 1437 1439 1438 1439 1439 1440 1441 1440 1440 1443 1444 1445 1446 1446 1444 1445 1446 1446 1448 1449 1449 1455 1461 1462 1466
1449 1448 1445 1438 1438 1437 1436 1437 1434 1433 1433 1430 1428 1430 1431 1429 1428 1430 1429 1430 1431 1431 1432 1432 1432 1433 1433 1435 1437 1438 1440 1438 1436 1435 1436 1436 1437 1438 1442 1448 1451 1456 1462
1450 1450 1446 1440 1438 1435 1430 1429 1429 1428 1424 1424 1428 1426 1426 1424 1423 1424 1423 1423 1422 1425 1425 1425 1425 1426 1427 1429 1430 1430 1429 1431 1430 1428 1428 1428 1429 1429 1435 1440 1448 1453 1454
1445 1441 1436 1431 1432 1430 1429 1428 1427 1425 1426 1427 1426 1424 1424 1423 1420 1419 1418 1417 1417 1416 1416 1417 1417 1417 1420 1422 1423 1421 1421 1422 1421 1422 1423 1424 1425 1434 1435 1445 1446 1452 1453
1433 1431 1430 1428 1427 1424 1423 1421 1422 1421 1421 1418 1419 1418 1417 1418 1416 1416 1413 1410 1408 1408 1409 1408 1409 1409 1412 1413 1413 1413 1415 1415 1415 1415 1418 1419 1423 1425 1433 1440 1441 1446 1449
1421 1420 1419 1416 1414 1410 1410 1411 1412 1411 1413 1411 1411 1411 1409 1410 1410 1408 1406 1402 1400 1400 1400 1401 1401 1402 1404 1403 1405 1406 1406 1405 1406 1408 1409 1413 1416 1425 1424 1432 1444 1439 1442
1415 1413 1413 1410 1406 1403 1403 1405 1405 1404 1402 1402 1403 1404 1403 1403 1402 1400 1398 1394 1391 1392 1392 1393 1394 1394 1395 1396 1398 1398 1400 1400 1402 1404 1409 1412 1416 1420 1428 1433 1429 1441 1435
1407 1403 1401 1399 1397 1398 1398 1399 1397 1394 1394 1393 1395 1395 1396 1396 1395 1392 1389 1389 1386 1386 1387 1386 1387 1388 1389 1390 1391 1392 1395 1396 1399 1402 1406 1413 1416 1420 1427 1429 1431 1436 1441
1398 1394 1395 1387 1387 1387 1388 1389 1387 1385 1385 1386 1387 1384 1386 1389 1388 1385 1384 1382 1383 1382 1380 1380 1381 1383 1385 1384 1386 1388 1392 1393 1397 1400 1405 1408 1413 1419 1421 1427 1427 1438 1438
1390 1391 1388 1384 1378 1378 1378 1377 1377 1375 1375 1376 1375 1375 1378 1381 1380 1380 1379 1377 1377 1375 1374 1375 1375 1378 1382 1383 1382 1385 1390 1394 1395 1399 1403 1405 1412 1414 1420 1422 1428 1432 1437
1381 1376 1373 1371 1371 1370 1369 1368 1367 1366 1368 1367 1366 1367 1369 1371 1373 1373 1374 1373 1371 1370 1370 1368 1371 1371 1377 1380 1379 1382 1385 1390 1393 1398 1401 1406 1409 1413 1419 1422 1429 1434 1437
1381 1377 1373 1370 1367 1362 1359 1352 1355 1354 1356 1355 1355 1357 1359 1361 1364 1367 1367 1368 1365 1365 1365 1364 1365 1367 1370 1376 1376 1376 1381 1386 1392 1395 1400 1403 1409 1415 1418 1423 1427 1432 1437
1374 1368 1363 1359 1354 1350 1348 1344 1337 1335 1336 1340 1345 1348 1349 1353 1356 1358 1359 1361 1360 1360 1358 1359 1363 1362 1364 1371 1372 1373 1377 1383 1387 1395 1398 1402 1408 1414 1419 1424 1428 1431 1439
1365 1360 1354 1349 1344 1340 1337 1334 1331 1330 1329 1329 1333 1337 1340 1341 1345 1349 1352 1351 1352 1351 1350 1354 1356 1360 1359 1364 1368 1369 1376 1380 1386 1389 1395 1401 1406 1414 1415 1422 1427 1432 1438
1358 1352 1347 1341 1336 1332 1328 1324 1322 1321 1319 1319 1321 1323 1328 1333 1336 1338 1340 1342 1343 1343 1343 1345 1351 1354 1355 1358 1366 1369 1372 1377 1383 1389 1393 1401 1406 1413 1417 1420 1427 1434 1438
1351 1345 1340 1334 1328 1323 1319 1315 1312 1310 1309 1310 1310 1312 1316 1322 1324 1326 1329 1332 1333 1335 1338 1342 1346 1350 1350 1355 1361 1369 1368 1375 1382 1388 1394 1401 1407 1414 1417 1424 1429 1434 1438
1346 1339 1334 1328 1322 1316 1311 1307 1303 1301 1300 1300 1300 1303 1306 1309 1313 1316 1319 1321 1325 1330 1334 1339 1341 1344 1346 1351 1357 1366 1367 1375 1382 1388 1396 1401 1408 1416 1418 1425 1428 1437 1438
1341 1334 1328 1322 1315 1309 1304 1299 1295 1291 1290 1290 1291 1292 1295 1299 1302 1305 1309 1313 1319 1324 1329 1332 1336 1341 1343 1347 1356 1364 1368 1378 1383 1389 1394 1400 1406 1413 1418 1425 1430 1434 1438
1336 1329 1322 1316 1310 1304 1298 1293 1288 1285 1282 1282 1283 1285 1288 1291 1295 1298 1302 1307 1313 1318 1323 1328 1333 1338 1342 1347 1355 1363 1366 1378 1384 1391 1394 1399 1406 1411 1417 1425 1430 1434 1440
1333 1326 1319 1313 1307 1301 1295 1290 1285 1282 1281 1281 1281 1283 1285 1288 1291 1294 1298 1303 1308 1315 1321 1325 1331 1337 1341 1349 1357 1361 1370 1376 1387 1395 1401 1402 1406 1412 1419 1425 1432 1438 1445
1331 1324 1318 1312 1305 1300 1295 1290 1286 1283 1281 1281 1281 1282 1283 1286 1290 1294 1298 1304 1309 1314 1320 1325 1331 1337 1343 1351 1357 1364 1374 1380 1388 1398 1403 1405 1409 1415 1422 1427 1433 1441 1447
1331 1325 1319 1312 1307 1302 1297 1293 1290 1287 1285 1284 1284 1285 1287 1290 1294 1297 1301 1306 1311 1316 1321 1327 1333 1338 1347 1355 1361 1367 1377 1385 1392 1401 1403 1407 1412 1418 1427 1429 1435 1443 1449